Pereira, Colombia

5:18 PM -05 on August 20, 2017 (GMT -0500)
Matecana

Weather History for SKPE - December, 2012

Change the Weather History Date:

Tuesday, December 4, 2012

  Actual Average Record
Temperature  
Mean Temperature 71 °F -  
Max Temperature 79 °F 81 °F 82 °F (2006)
Min Temperature 63 °F 61 °F 62 °F (1996)
Cooling Degree Days 6    
Growing Degree Days 21 (Base 50)    
Moisture  
Dew Point 64 °F    
Average Humidity 78    
Maximum Humidity 88    
Minimum Humidity 62    
Precipitation  
Precipitation 0.00 in 0.21 in - ()
Sea Level Pressure  
Sea Level Pressure 30.11 in    
Wind  
Wind Speed 3 mph ()    
Max Wind Speed 7 mph    
Max Gust Speed -    
Visibility 6.4 miles    
Events Thunderstorm    
Averages and records for this station are not official NWS values.
T = Trace of Precipitation, MM = Missing Value Source: Averaged Metar Reports

Daily Weather History Graph

Daily Weather History Graph

Search for Another Location

Airport or City:

Trip Planner

Search our weather history database for the weather conditions in past years. The results will help you decide how hot, cold, wet, or windy it might be!

Date:

Astronomy

Dec. 04, 2012 Rise Set
Actual Time 5:57 AM -05 5:49 PM -05
Civil Twilight 5:35 AM -05 6:11 PM -05
Nautical Twilight 5:09 AM -05 6:37 PM -05
Astronomical Twilight 4:43 AM -05 7:03 PM -05
Moon 10:48 PM -05 (12/4) 10:30 AM -05 (12/4)
Length of Visible Light 12h 36m
Length of Day
11h 51m
Waning Gibbous, 69% of the Moon is Illuminated
Dec 4
Waning Gibbous
Dec 6
Last Quarter
Dec 13
New
Dec 20
First Quarter
Dec 28
Full

Hourly Weather History & Observations

Time (-05) Temp. Dew Point Humidity Pressure Visibility Wind Dir Wind Speed Gust Speed Precip Events Conditions
12:00 AM 68.0 °F 62.6 °F 83% 30.12 in 6.2 mi East 6.9 mph - N/A   Partly Cloudy
5:00 AM 66.2 °F 62.6 °F 88% 30.09 in 6.2 mi East 4.6 mph - N/A   Scattered Clouds
6:00 AM 66.2 °F 62.6 °F 88% 30.12 in 6.2 mi Variable 2.3 mph - N/A   Scattered Clouds
7:00 AM 66 °F 61 °F 80%  in 8 mi East 2.2 mph - -   Haze
7:00 AM 66.2 °F 60.8 °F 83% 30.13 in 6.2 mi Variable 2.3 mph - N/A   Scattered Clouds
8:00 AM 68.0 °F 62.6 °F 83% 30.15 in 6.2 mi Variable 2.3 mph - N/A   Scattered Clouds
9:00 AM 69.8 °F 62.6 °F 78% 30.16 in 6.2 mi Variable 2.3 mph - N/A   Scattered Clouds
10:00 AM 72 °F 64 °F 70%  in 8 mi West 4.5 mph - -   Haze
10:00 AM 71.6 °F 64.4 °F 78% 30.18 in 6.2 mi West 3.5 mph - N/A   Scattered Clouds
11:00 AM 75.2 °F 64.4 °F 69% 30.15 in 6.2 mi West 4.6 mph - N/A   Scattered Clouds
12:00 PM 75.2 °F 64.4 °F 69% 30.12 in 6.2 mi WSW 4.6 mph - N/A   Scattered Clouds
1:00 PM 76 °F 67 °F 66%  in 6 mi West 4.5 mph - -   Partly Cloudy
1:00 PM 77.0 °F 66.2 °F 69% 30.09 in 6.2 mi Calm Calm - N/A   Scattered Clouds
2:00 PM 75 °F 64 °F 62%  in 7 mi West 4.5 mph - - Thunderstorm Thunderstorm
2:00 PM 78.8 °F 66.2 °F 65% 30.06 in 6.2 mi WSW 5.8 mph - N/A   Scattered Clouds
3:00 PM 78.8 °F 66.2 °F 65% 30.04 in 6.2 mi WNW 6.9 mph - N/A   Scattered Clouds
4:00 PM 75.2 °F 64.4 °F 69% 30.04 in 6.2 mi West 5.8 mph - N/A Thunderstorm Thunderstorm
5:00 PM 69.8 °F 64.4 °F 83% 30.07 in 6.2 mi ESE 4.6 mph - N/A   Mostly Cloudy
6:00 PM 69.8 °F 64.4 °F 83% 30.07 in 6.2 mi ESE 4.6 mph - N/A   Mostly Cloudy
7:00 PM 69 °F 63 °F 77%  in 7 mi ENE 2.2 mph - -   Haze
7:00 PM 69.8 °F 62.6 °F 78% 30.10 in 6.2 mi ENE 2.3 mph - N/A   Scattered Clouds
8:00 PM 69.8 °F 64.4 °F 83% 30.12 in 6.2 mi East 6.9 mph - N/A   Partly Cloudy
9:00 PM 68.0 °F 64.4 °F 88% 30.14 in 6.2 mi East 3.5 mph - N/A   Scattered Clouds
10:00 PM 67 °F 64 °F 87%  in 6 mi Calm Calm - -   Haze
10:00 PM 68.0 °F 64.4 °F 88% 30.16 in 6.2 mi Calm Calm - N/A   Scattered Clouds
11:00 PM 68.0 °F 64.4 °F 88% 30.16 in 6.2 mi Variable 2.3 mph - N/A   Scattered Clouds